sat.trackr.live / text

‹ back to catalog

UNKNOWN

NORAD 81406

UNKNOWN UNKNOWN UNKNOWN

§ Identity

Operator
Country
Launch date
Launch site
Launch vehicle
Mass (kg)
RCS (m²)

External: N2YO · Heavens-Above

§ Orbital elements

Epoch: 2026-05-15T09:31:19.046208Z

Period
109.70 min
Inclination
65.8140°
Eccentricity
0.0869026
Mean motion
13.12709251 rev/d
Perigee alt
553.0 km
Apogee alt
1,872.4 km
Semi-major
7,590.8 km
B*
3.9158e-4
RAAN
168.7529°
Arg perigee
252.0744°
Mean anomaly
98.3764°
Rev number
55,384

§ Raw data

UNKNOWN1 81406U          26135.39674822  .00000942  00000+0  39158-3 0  99902 81406  65.8140 168.7529 0869026 252.0744  98.3764 13.12709251553841

JSON: /api/v1/satellites/81406 · /tle

For live sub-satellite position, see the globe view (requires WebGL).

§ Visibility from observer

Set your observer location to see the next 7 days of passes ≥ 10°. The values pass through the URL so the page stays shareable.

No JS? Fill the form by hand. The geolocation button needs JavaScript.